Location: Unspecified
(40.7945°N, 0.0000°E)
Time: 09:40:10
(UTC+00:00)

Courier 1B - Pass Details

Date: 22 January 2021
Orbit: 962 x 1209 km, 28.3° (Epoch: 03 March)

Event Time Altitude Azimuth Distance (km) Brightness Sun altitude
Rises 04:27:00 0° 256° (WSW) 3,637 - -32.3°
Reaches altitude 10° 04:30:28 10° 238° (WSW) 2,702 - -31.6°
Maximum altitude 04:34:44 18° 197° (SSW) 2,176 - -30.8°
Exits shadow 04:35:56 18° 183° (S) 2,231 9.3 -30.6°
Drops below altitude 10° 04:39:07 10° 155° (SSE) 2,770 10.1 -30.0°
Sets 04:42:44 0° 138° (SE) 3,763 11.1 -29.3°
